星链-1781 (STARLINK-1781 )

导读 | 星芒AI

STARLINK-1781 是 SpaceX Starlink 项目中的一颗低轨通信卫星,属于第 5 批(V1.5 版本)部署的卫星之一。该卫星于 2022 年 10 月 19 日由猎鹰 9 号火箭发射升空,运行在约 540 公里的轨道高度,旨在为全球提供高速互联网服务。Starlink 卫星采用先进推进系统和激光通信技术,提升网络稳定性和传输效率,支持偏远地区互联网接入。STARLINK-1781 与其他卫星协同工作,构建覆盖全球的卫星互联网网络。

基本信息
目录编号:
46685
目录名称:
STARLINK-1781
国际标识:
2020-073R
轨道中心:
EARTH
卫星名称:
星链-1781
卫星全名:
星链-1781 (STARLINK-1781 )
卫星状态:
在轨 (已飞行1885 天)
发射日期:
2020-10-18 UTC
国别 :
美国 (US)
星等 :
--
轨道信息
数据来源 国际轨道数据
星历时间: 2025-12-16T02:54:55+0800
13小时前
查看轨道信息
半长轴: 6925.419km
偏心率: 0.0001401
轨道倾角: 53.054°
近地点辐角 71.023°
升交点赤经 273.537°
平近点角 289.091°
近地点: 546.313km
远地点: 548.255km
周期: 95.594分钟
每日圈数: 15.063773
详细信息
固有亮度:
5
最大亮度:
2.5
卫星平台:
Starlink V1.0
覆盖范围:
全球
运营商:
太空探索技术公司
运营商所在国:
美国
制造商(研发单位):
太空探索技术公司
制造商所在国:
美国
使用方式:
暂无
卫星简介
星链(Starlink)计划是由太空探索技术公司(SpaceX)提出的一个巨型低轨卫星互联网星座项目,计划在2019年至2024年间在太空搭建由约1.2万颗卫星组成的“星链”网络,其中1584颗将部署在地球上空550千米处的近地轨道,并从2020年开始工作。该卫星仍在工作。
2D轨道图
3D轨道图
轨道高度分析图
轨道倾角分析图
轨道综合分析图
查看轨道综合分析图